Flag for Romania Weather past 2 weeks in Timișoara, Romania

Now
72 °F

Passing clouds.


Feels Like: 74 °F
Forecast: 65 / 96 °F
Wind: 2 mph from North

Location: Timisoara Airport

Current Time: Aug 4, 2015 at 4:55:04 AM

Latest Report: Aug 4, 2015 at 4:30 AM


Visibility: N/A

Pressure: 30.04 "Hg

Humidity: 73%

Dew point: 63 °F

Location of TimișoaraLocation

Historic Weather in Timișoara — Graph

°F

Timișoara temperature yesterday

Maximum temperature yesterday: 93 °F (at 5:00 PM)
Minimum temperature yesterday: 68 °F (at 6:00 AM)
Average temperature yesterday: 81 °F

Past Weeks' High & Low Weather Summary

 TemperatureHumidityPressure
High99 °F (Jul 23, 2:30 PM)100% (Jul 21, 4:00 AM)30.09 "Hg (Jul 21, 4:00 AM)
Low50 °F (Aug 1, 5:30 AM)17% (Jul 23, 4:30 PM)29.71 "Hg (Jul 25, 4:30 PM)
Average77 °F56%29.90 "Hg
* Reported Jul 20 4:00 AM — Aug 4 4:00 AM, Timișoara, Weather by CustomWeather, © 2015

Note: Actual official high and low records may vary slightly from our data, if they occured in-between our weather recording intervals... More about our weather records

Advertising

Timișoara weather history for previous 24 hours

 ConditionsComfort  
Time TempWeatherWind HumidityBarometerVisibility
4:00 AM
Tue, Aug 4
73 °FPassing clouds.3 mph69%30.01 "HgN/A
3:30 AM73 °FPassing clouds.3 mph69%30.01 "HgN/A
3:00 AM73 °FPassing clouds.5 mph69%30.01 "HgN/A
2:30 AM73 °FPassing clouds.5 mph74%30.01 "HgN/A
2:00 AM75 °FPassing clouds.No wind65%30.04 "HgN/A
1:30 AM75 °FPassing clouds.1 mph69%30.01 "HgN/A
1:00 AM79 °FPassing clouds.No wind58%30.01 "HgN/A
12:30 AM81 °FPassing clouds.2 mph51%30.04 "HgN/A
12:00 AM79 °FPassing clouds.7 mph58%30.04 "HgN/A
11:30 PM
Mon, Aug 3
81 °FPassing clouds.6 mph51%30.01 "HgN/A
11:00 PM79 °FPassing clouds.8 mph54%30.01 "HgN/A
10:30 PM81 °FPassing clouds.8 mph51%30.01 "HgN/A
10:00 PM82 °FPassing clouds.9 mph48%30.01 "HgN/A
9:30 PM82 °FPassing clouds.9 mph48%30.01 "HgN/A
9:00 PM84 °FPassing clouds.8 mph43%29.98 "HgN/A
8:30 PM88 °FPassing clouds.8 mph38%29.98 "HgN/A
8:00 PM88 °FPassing clouds.8 mph38%29.98 "HgN/A
7:30 PM90 °FPassing clouds.7 mph36%29.98 "HgN/A
7:00 PM90 °FPassing clouds.5 mph33%29.98 "HgN/A
6:30 PM91 °FPassing clouds.6 mph32%30.01 "HgN/A
6:00 PM91 °FPassing clouds.5 mph30%30.01 "HgN/A
5:30 PM91 °FPassing clouds.8 mph32%30.01 "HgN/A
5:00 PM93 °FSunny.2 mph30%30.01 "Hg10 mi
4:30 PM91 °FPassing clouds.5 mph32%30.01 "HgN/A
4:00 PM91 °FPassing clouds.6 mph28%30.01 "HgN/A
3:30 PM91 °FPassing clouds.5 mph30%30.04 "HgN/A
3:00 PM90 °FPassing clouds.3 mph29%30.04 "HgN/A
2:30 PM90 °FPassing clouds.5 mph31%30.04 "HgN/A
2:00 PM90 °FSunny.5 mph31%30.04 "Hg10 mi
1:30 PM90 °FSunny.3 mph31%30.07 "Hg10 mi
1:00 PM86 °FPassing clouds.3 mph40%30.07 "HgN/A
12:30 PM86 °FSunny.3 mph40%30.07 "Hg10 mi
12:00 PM84 °FSunny.1 mph43%30.07 "Hg10 mi
11:30 AM82 °FPassing clouds.3 mph42%30.07 "HgN/A
11:00 AM81 °FSunny.2 mph48%30.07 "Hg10 mi
10:30 AM81 °FPassing clouds.3 mph51%30.07 "HgN/A
10:00 AM79 °FSunny.No wind54%30.07 "Hg10 mi
9:30 AM75 °FSunny.2 mph65%30.09 "Hg10 mi
9:00 AM72 °FPassing clouds.3 mph78%30.09 "HgN/A
8:30 AM72 °FSunny.No wind73%30.07 "Hg10 mi
8:00 AM70 °FSunny.1 mph78%30.07 "Hg10 mi
7:30 AM68 °FSunny.1 mph83%30.07 "Hg10 mi
6:30 AM68 °FClear.2 mph83%30.04 "Hg10 mi
6:00 AM68 °FClear.2 mph88%30.04 "Hg10 mi
5:30 AM70 °FClear.1 mph83%30.04 "Hg10 mi
5:00 AM70 °FClear.3 mph83%30.04 "Hg10 mi
4:30 AM70 °FClear.3 mph83%30.04 "Hg10 mi
4:00 AM72 °FPassing clouds.2 mph83%30.07 "HgN/A
Weather by CustomWeather, © 2015

See weather overviewHow to use our weather pages